Location: Baia Mare
(47.6567°N, 23.5850°E)
Time: 03:14:30
(UTC+03:00)

ISS - Pass Details

Date: 23 July 2018
Orbit: 402 x 408 km, 51.6° (Epoch: 17 July)

Event Time Altitude Azimuth Distance (km) Brightness Sun altitude
Rises 22:10:15 0° 242° (WSW) 2,312 0.3 -8.7°
Reaches altitude 10° 22:12:19 10° 241° (WSW) 1,456 -0.8 -8.9°
Maximum altitude 22:15:35 81° 155° (SSE) 414 -3.9 -9.3°
Drops below altitude 10° 22:18:52 10° 67° (ENE) 1,466 -1.2 -9.7°
Sets 22:20:57 0° 67° (ENE) 2,329 -0.2 -10.0°
